Satellite: INMARSAT 3-F1
Catalog number: 23839
Epoch time:      102355.67222818
Element set:     839 
Inclination:        0.0456 deg
RA of node:        12.9873 deg
Eccentricity:    0.0004261
Arg of perigee:   238.0560 deg
Mean anomaly:     144.9402 deg
Mean motion:    1.00273650 rev/day
Decay rate:    3.6000E-007 rev/day^2
Epoch rev:            2462
Checksum:              270

Satellite: ASTRA 1F
Catalog number: 23842
Epoch time:      102354.00000000
Element set:     554 
Inclination:        0.0122 deg
RA of node:       319.8851 deg
Eccentricity:    0.0002995
Arg of perigee:    65.1991 deg
Mean anomaly:      82.5479 deg
Mean motion:    1.00273184 rev/day
Decay rate:    1.4299E-006 rev/day^2
Epoch rev:            2451
Checksum:              257

Satellite: JAS 2
Catalog number: 24278
Epoch time:      102359.88831578
Element set:     556 
Inclination:       98.5314 deg
RA of node:       153.5561 deg
Eccentricity:    0.0351351
Arg of perigee:   358.3777 deg
Mean anomaly:       1.6198 deg
Mean motion:   13.52867884 rev/day
Decay rate:    4.1000E-007 rev/day^2
Epoch rev:           31391
Checksum:              335

Satellite: UNAMSAT
Catalog number: 24305
Epoch time:      102360.21447759
Element set:     649 
Inclination:       82.9312 deg
RA of node:       302.9741 deg
Eccentricity:    0.0031472
Arg of perigee:   357.5345 deg
Mean anomaly:       2.5648 deg
Mean motion:   13.73444409 rev/day
Decay rate:    2.0499E-006 rev/day^2
Epoch rev:           31602
Checksum:              297

Satellite: INMARSAT 3-F2
Catalog number: 24307
Epoch time:      102356.97938659
Element set:     62 
Inclination:        0.0472 deg
RA of node:         4.0122 deg
Eccentricity:    0.0004388
Arg of perigee:   269.0038 deg
Mean anomaly:     155.4258 deg
Mean motion:    1.00272052 rev/day
Decay rate:   -1.0600E-006 rev/day^2
Epoch rev:            2304
Checksum:              363

Satellite: HOT BIRD 2
Catalog number: 24665
Epoch time:      102350.97625740
Element set:     336 
Inclination:        0.0508 deg
RA of node:       231.3890 deg
Eccentricity:    0.0009627
Arg of perigee:    13.0081 deg
Mean anomaly:     205.5338 deg
Mean motion:    1.00276963 rev/day
Decay rate:    1.1199E-006 rev/day^2
Epoch rev:            2262
Checksum:              271

Satellite: INMARSAT 3-F3
Catalog number: 24674
Epoch time:      102360.44151020
Element set:     956 
Inclination:        0.0528 deg
RA of node:       355.0125 deg
Eccentricity:    0.0004410
Arg of perigee:   281.2822 deg
Mean anomaly:     155.4810 deg
Mean motion:    1.00271737 rev/day
Decay rate:    5.1000E-007 rev/day^2
Epoch rev:            2204
Checksum:              230

Satellite: GOES 10
Catalog number: 24786
Epoch time:      102361.36365196
Element set:     477 
Inclination:        0.0182 deg
RA of node:       239.7888 deg
Eccentricity:    0.0002881
Arg of perigee:    67.1991 deg
Mean anomaly:     144.0925 deg
Mean motion:    1.00272977 rev/day
Decay rate:    1.0100E-006 rev/day^2
Epoch rev:            2080
Checksum:              292

Satellite: INMARSAT 3-F4
Catalog number: 24819
Epoch time:      102360.27473560
Element set:     858 
Inclination:        0.0403 deg
RA of node:       304.5192 deg
Eccentricity:    0.0003275
Arg of perigee:   337.5727 deg
Mean anomaly:     217.4361 deg
Mean motion:    1.00272797 rev/day
Decay rate:   -2.7399E-006 rev/day^2
Epoch rev:            2046
Checksum:              297

Satellite: FENGYUN 2A
Catalog number: 24834
Epoch time:      102360.95578905
Element set:     940 
Inclination:        2.4402 deg
RA of node:        88.9258 deg
Eccentricity:    0.0002094
Arg of perigee:   241.9411 deg
Mean anomaly:     194.9989 deg
Mean motion:    1.00268853 rev/day
Decay rate:   -1.8800E-006 rev/day^2
Epoch rev:            2030
Checksum:              304

Satellite: HOT BIRD 3
Catalog number: 24931
Epoch time:      102351.86791068
Element set:     417 
Inclination:        0.0013 deg
RA of node:       322.2522 deg
Eccentricity:    0.0005452
Arg of perigee:   322.5658 deg
Mean anomaly:     126.9331 deg
Mean motion:    1.00273655 rev/day
Decay rate:    1.1199E-006 rev/day^2
Epoch rev:            1945
Checksum:              268

Satellite: METEOSAT 7
Catalog number: 24932
Epoch time:      102356.82652200
Element set:     218 
Inclination:        0.1027 deg
RA of node:        13.2657 deg
Eccentricity:    0.0001425
Arg of perigee:   231.9785 deg
Mean anomaly:     143.4701 deg
Mean motion:    1.00269229 rev/day
Decay rate:    1.1999E-007 rev/day^2
Epoch rev:            1944
Checksum:              274

Satellite: ASTRA 1G
Catalog number: 25071
Epoch time:      102354.00000000
Element set:     385 
Inclination:        0.0122 deg
RA of node:       319.8851 deg
Eccentricity:    0.0002995
Arg of perigee:    65.1991 deg
Mean anomaly:      82.5033 deg
Mean motion:    1.00273184 rev/day
Decay rate:    1.4299E-006 rev/day^2
Epoch rev:            1853
Checksum:              246

Satellite: INMARSAT 3-F5
Catalog number: 25153
Epoch time:      102357.15378473
Element set:     824 
Inclination:        0.4503 deg
RA of node:       357.6363 deg
Eccentricity:    0.0004446
Arg of perigee:   282.0150 deg
Mean anomaly:     252.2432 deg
Mean motion:    1.00275216 rev/day
Decay rate:    1.5699E-006 rev/day^2
Epoch rev:            1792
Checksum:              283

Satellite: HOT BIRD 4
Catalog number: 25237
Epoch time:      102353.82621742
Element set:     322 
Inclination:        0.0438 deg
RA of node:       307.7455 deg
Eccentricity:    0.0004897
Arg of perigee:   256.9385 deg
Mean anomaly:     194.0865 deg
Mean motion:    1.00274102 rev/day
Decay rate:    1.1099E-006 rev/day^2
Epoch rev:            1793
Checksum:              292

Satellite: NOAA 15
Catalog number: 25338
Epoch time:      102360.92483590
Element set:     948 
Inclination:       98.5517 deg
RA of node:        19.5261 deg
Eccentricity:    0.0011360
Arg of perigee:   111.6601 deg
Mean anomaly:     248.5789 deg
Mean motion:   14.24218726 rev/day
Decay rate:    4.4399E-006 rev/day^2
Epoch rev:           24016
Checksum:              321

Satellite: RESURS O1-N4
Catalog number: 25394
Epoch time:      102361.22988457
Element set:     409 
Inclination:       98.6385 deg
RA of node:        75.1218 deg
Eccentricity:    0.0000657
Arg of perigee:   252.6073 deg
Mean anomaly:     107.5035 deg
Mean motion:   14.23856881 rev/day
Decay rate:    6.4400E-006 rev/day^2
Epoch rev:           23194
Checksum:              322

Satellite: TMSAT
Catalog number: 25396
Epoch time:      102361.18647472
Element set:     807 
Inclination:       98.6361 deg
RA of node:        74.3197 deg
Eccentricity:    0.0001377
Arg of perigee:   265.5417 deg
Mean anomaly:      94.5606 deg
Mean motion:   14.23489715 rev/day
Decay rate:   -4.3000E-007 rev/day^2
Epoch rev:           23193
Checksum:              319

Satellite: TECHSAT 1B
Catalog number: 25397
Epoch time:      102359.92192475
Element set:     94 
Inclination:       98.6302 deg
RA of node:        72.0274 deg
Eccentricity:    0.0000670
Arg of perigee:   353.2761 deg
Mean anomaly:       6.8406 deg
Mean motion:   14.22945710 rev/day
Decay rate:    2.4099E-006 rev/day^2
Epoch rev:           23172
Checksum:              302

Satellite: ASTRA 2A
Catalog number: 25462
Epoch time:      102354.00000000
Element set:     526 
Inclination:        0.0385 deg
RA of node:       308.7109 deg
Eccentricity:    0.0004824
Arg of perigee:   280.8620 deg
Mean anomaly:     247.0673 deg
Mean motion:    1.00272094 rev/day
Decay rate:    1.7300E-006 rev/day^2
Epoch rev:            1583
Checksum:              233

Satellite: EUTELSAT W2
Catalog number: 25491
Epoch time:      102359.83938433
Element set:     552 
Inclination:        0.0126 deg
RA of node:       249.7749 deg
Eccentricity:    0.0003903
Arg of perigee:    24.4382 deg
Mean anomaly:     138.1182 deg
Mean motion:    1.00272597 rev/day
Decay rate:    1.1500E-006 rev/day^2
Epoch rev:            1550
Checksum:              381

Satellite: HOT BIRD 5
Catalog number: 25495
Epoch time:      102356.04688080
Element set:     484 
Inclination:        0.0152 deg
RA of node:       250.7235 deg
Eccentricity:    0.0004141
Arg of perigee:     2.0169 deg
Mean anomaly:     247.6769 deg
Mean motion:    1.00273387 rev/day
Decay rate:    1.7400E-006 rev/day^2
Epoch rev:            1543
Checksum:              268

Satellite: SEDSAT 1
Catalog number: 25509
Epoch time:      102360.44852679
Element set:     742 
Inclination:       31.4282 deg
RA of node:        98.7507 deg
Eccentricity:    0.0358902
Arg of perigee:   190.3335 deg
Mean anomaly:     168.9750 deg
Mean motion:   14.27316818 rev/day
Decay rate:    2.1410E-005 rev/day^2
Epoch rev:           21757
Checksum:              317

Satellite: PAN SAT
Catalog number: 25520
Epoch time:      102359.04568974
Element set:     620 
Inclination:       28.4584 deg
RA of node:       233.5954 deg
Eccentricity:    0.0006269
Arg of perigee:   110.5214 deg
Mean anomaly:     249.6055 deg
Mean motion:   15.13575124 rev/day
Decay rate:    5.4150E-005 rev/day^2
Epoch rev:           22916
Checksum:              404

Satellite: ISS (ZARYA)
Catalog number: 25544
Epoch time:      102361.52298520
Element set:     516 
Inclination:       51.6348 deg
RA of node:       162.4883 deg
Eccentricity:    0.0003927
Arg of perigee:   321.6388 deg
Mean anomaly:     161.2574 deg
Mean motion:   15.58174071 rev/day
Decay rate:    2.1083E-004 rev/day^2
Epoch rev:           23426
Checksum:              404

